| time (UTC) | temp C | wind direction | speed KPH | gust KPH | rain 1hr cm | rain 24hr cm | rain mn cm | humidity % | barometer mb |
| 20260508001555 | 9 | 0 | 0.0 | 3.2 | 0.00 | 2.72 | 2.72 | 100 | 1002.3 |
| 20260508000058 | 9 | 164 | 0.0 | 3.2 | 0.00 | 2.72 | 2.72 | 100 | 1002.3 |
| 20260507234558 | 9 | 0 | 0.0 | 1.6 | 0.00 | 2.72 | 2.72 | 100 | 1002.4 |
| 20260507233056 | 9 | 0 | 0.0 | 6.4 | 0.00 | 2.72 | 2.72 | 100 | 1002.3 |
| 20260507231558 | 9 | 165 | 1.6 | 3.2 | 0.00 | 2.72 | 2.72 | 100 | 1002.2 |
| 20260507230101 | 9 | 0 | 0.0 | 3.2 | 0.00 | 2.72 | 2.72 | 100 | 1002.1 |
| 20260507224600 | 9 | 0 | 0.0 | 8.0 | 0.00 | 2.72 | 2.72 | 100 | 1002.2 |
| 20260507223056 | 10 | 0 | 0.0 | 6.4 | 0.00 | 2.72 | 2.72 | 100 | 1002.1 |
| 20260507221600 | 10 | 164 | 1.6 | 8.0 | 0.00 | 2.72 | 2.72 | 100 | 1002.4 |
| 20260507220056 | 10 | 0 | 3.2 | 8.0 | 0.00 | 2.72 | 2.72 | 100 | 1002.4 |
| 20260507214605 | 10 | 0 | 1.6 | 8.0 | 0.03 | 2.72 | 2.72 | 100 | 1002.4 |
| 20260507213057 | 10 | 164 | 4.8 | 8.0 | 0.03 | 2.72 | 2.72 | 100 | 1002.8 |
| 20260507211605 | 10 | 0 | 0.0 | 3.2 | 0.05 | 2.72 | 2.72 | 100 | 1002.4 |
| 20260507204557 | 10 | 249 | 4.8 | 11.3 | 0.18 | 2.67 | 2.67 | 100 | 1002.5 |
| 20260507203106 | 10 | 169 | 4.8 | 9.7 | 0.30 | 2.67 | 2.67 | 100 | 1002.5 |
| 20260507201612 | 10 | 167 | 3.2 | 11.3 | 0.51 | 2.64 | 2.64 | 100 | 1002.4 |
| 20260507200109 | 10 | 0 | 1.6 | 9.7 | 0.64 | 2.62 | 2.62 | 100 | 1003.0 |
| 20260507194557 | 10 | 0 | 1.6 | 11.3 | 0.71 | 2.51 | 2.51 | 100 | 1002.8 |
| 20260507193059 | 10 | 158 | 0.0 | 8.0 | 0.84 | 2.39 | 2.39 | 100 | 1003.7 |
| 20260507191600 | 10 | 0 | 0.0 | 0.0 | 0.86 | 2.16 | 2.16 | 100 | 1004.6 |
| 20260507190104 | 10 | 0 | 0.0 | 1.6 | 0.94 | 1.98 | 1.98 | 100 | 1004.7 |
| 20260507184600 | 9 | 0 | 0.0 | 1.6 | 1.14 | 1.78 | 1.78 | 100 | 1004.6 |
| 20260507183058 | 9 | 164 | 0.0 | 6.4 | 1.19 | 1.55 | 1.55 | 100 | 1004.8 |
| 20260507181601 | 9 | 184 | 3.2 | 11.3 | 1.04 | 1.30 | 1.30 | 100 | 1005.1 |
| 20260507180055 | 9 | 194 | 0.0 | 12.9 | 0.89 | 1.04 | 1.04 | 100 | 1005.3 |
| 20260507174558 | 9 | 259 | 4.8 | 19.3 | 0.51 | 0.61 | 0.61 | 100 | 1005.4 |
| 20260507173103 | 9 | 169 | 6.4 | 22.5 | 0.25 | 0.36 | 0.36 | 100 | 1004.8 |
| 20260507171600 | 9 | 281 | 8.0 | 25.7 | 0.15 | 0.25 | 0.25 | 100 | 1004.8 |
| 20260507170104 | 9 | 230 | 6.4 | 17.7 | 0.08 | 0.15 | 0.15 | 100 | 1005.1 |
| 20260507164601 | 9 | 152 | 4.8 | 20.9 | 0.03 | 0.10 | 0.10 | 100 | 1005.4 |
| 20260507163056 | 9 | 235 | 3.2 | 16.1 | 0.03 | 0.10 | 0.10 | 100 | 1006.1 |
| 20260507161558 | 10 | 223 | 6.4 | 24.1 | 0.03 | 0.10 | 0.10 | 100 | 1006.7 |
| 20260507160058 | 10 | 184 | 4.8 | 16.1 | 0.00 | 0.08 | 0.08 | 100 | 1007.3 |
| 20260507154600 | 10 | 0 | 4.8 | 14.5 | 0.00 | 0.08 | 0.08 | 100 | 1007.5 |
| 20260507153059 | 10 | 226 | 4.8 | 17.7 | 0.00 | 0.08 | 0.08 | 100 | 1007.9 |
| 20260507151555 | 10 | 153 | 3.2 | 20.9 | 0.00 | 0.08 | 0.08 | 100 | 1008.3 |
| 20260507150055 | 10 | 169 | 3.2 | 17.7 | 0.00 | 0.08 | 0.08 | 100 | 1008.5 |
| 20260507144557 | 11 | 209 | 4.8 | 17.7 | 0.00 | 0.08 | 0.08 | 100 | 1008.7 |
| 20260507143100 | 11 | 149 | 8.0 | 22.5 | 0.00 | 0.08 | 0.08 | 100 | 1008.8 |
| 20260507141557 | 11 | 222 | 4.8 | 22.5 | 0.00 | 0.08 | 0.08 | 100 | 1009.2 |
| 20260507140056 | 11 | 199 | 8.0 | 32.2 | 0.00 | 0.08 | 0.08 | 100 | 1009.5 |
| 20260507134603 | 11 | 242 | 4.8 | 14.5 | 0.00 | 0.08 | 0.08 | 100 | 1009.6 |
| 20260507133129 | 11 | 150 | 4.8 | 16.1 | 0.00 | 0.08 | 0.08 | 100 | 1009.5 |
| 20260507131558 | 10 | 171 | 3.2 | 14.5 | 0.00 | 0.08 | 0.08 | 100 | 1009.7 |
| 20260507130108 | 10 | 182 | 9.7 | 19.3 | 0.00 | 0.08 | 0.08 | 100 | 1009.9 |
| 20260507124558 | 10 | 178 | 4.8 | 19.3 | 0.00 | 0.08 | 0.08 | 100 | 1010.2 |
| 20260507123058 | 10 | 232 | 6.4 | 19.3 | 0.00 | 0.08 | 0.08 | 100 | 1009.9 |
| 20260507121611 | 10 | 142 | 6.4 | 16.1 | 0.03 | 0.08 | 0.08 | 100 | 1010.1 |
| 20260507120103 | 10 | 200 | 4.8 | 16.1 | 0.03 | 0.08 | 0.08 | 100 | 1010.4 |
| 20260507114638 | 10 | 187 | 4.8 | 16.1 | 0.03 | 0.08 | 0.08 | 100 | 1010.7 |
| 20260507113056 | 10 | 231 | 1.6 | 22.5 | 0.03 | 0.08 | 0.08 | 100 | 1011.2 |
| 20260507111601 | 10 | 155 | 6.4 | 19.3 | 0.03 | 0.05 | 0.05 | 100 | 1011.3 |
| 20260507110059 | 10 | 171 | 6.4 | 12.9 | 0.05 | 0.05 | 0.05 | 100 | 1011.6 |
| 20260507104558 | 10 | 258 | 4.8 | 14.5 | 0.05 | 0.05 | 0.05 | 100 | 1011.1 |
| 20260507103058 | 10 | 223 | 3.2 | 17.7 | 0.05 | 0.05 | 0.05 | 100 | 1011.3 |
| 20260507101603 | 9 | 217 | 1.6 | 6.4 | 0.03 | 0.03 | 0.03 | 100 | 1011.5 |
| 20260507094604 | 9 | 238 | 3.2 | 11.3 | 0.00 | 0.00 | 0.00 | 100 | 1012.1 |
| 20260507093058 | 9 | 0 | 0.0 | 6.4 | 0.00 | 0.00 | 0.00 | 100 | 1011.7 |
| 20260507091555 | 9 | 0 | 0.0 | 6.4 | 0.00 | 0.00 | 0.00 | 100 | 1012.0 |
| 20260507090100 | 9 | 236 | 4.8 | 14.5 | 0.00 | 0.00 | 0.00 | 100 | 1012.4 |
| 20260507084601 | 9 | 213 | 0.0 | 6.4 | 0.00 | 0.00 | 0.00 | 100 | 1012.3 |
| 20260507083056 | 9 | 0 | 0.0 | 9.7 | 0.00 | 0.00 | 0.00 | 100 | 1012.2 |
| 20260507081556 | 9 | 0 | 3.2 | 9.7 | 0.00 | 0.00 | 0.00 | 100 | 1012.1 |
| 20260507080120 | 9 | 0 | 1.6 | 8.0 | 0.00 | 0.00 | 0.00 | 100 | 1012.1 |
| 20260507074558 | 9 | 0 | 0.0 | 4.8 | 0.00 | 0.00 | 0.00 | 100 | 1012.6 |
| 20260507073106 | 9 | 0 | 0.0 | 8.0 | 0.00 | 0.00 | 0.00 | 100 | 1012.8 |
| 20260507071555 | 9 | 234 | 0.0 | 8.0 | 0.00 | 0.00 | 0.00 | 100 | 1013.4 |
| 20260507070055 | 9 | 234 | 1.6 | 9.7 | 0.00 | 0.00 | 0.00 | 100 | 1013.6 |
| 20260507064600 | 9 | 230 | 1.6 | 8.0 | 0.00 | 0.00 | 0.00 | 100 | 1013.6 |
| 20260507063105 | 9 | 242 | 6.4 | 12.9 | 0.00 | 0.00 | 0.00 | 100 | 1014.0 |
| 20260507061556 | 9 | 226 | 1.6 | 6.4 | 0.00 | 0.00 | 0.00 | 100 | 1013.7 |
| 20260507060056 | 10 | 227 | 0.0 | 8.0 | 0.00 | 0.00 | 0.00 | 100 | 1014.2 |
| 20260507054555 | 10 | 228 | 1.6 | 8.0 | 0.00 | 0.00 | 0.00 | 100 | 1014.4 |
| 20260507053109 | 10 | 228 | 3.2 | 9.7 | 0.00 | 0.00 | 0.00 | 100 | 1014.7 |
| 20260507051600 | 10 | 192 | 1.6 | 6.4 | 0.00 | 0.00 | 0.00 | 100 | 1015.1 |
| 20260507050058 | 10 | 192 | 3.2 | 11.3 | 0.00 | 0.00 | 0.00 | 100 | 1015.4 |
| 20260507044558 | 10 | 171 | 3.2 | 11.3 | 0.00 | 0.00 | 0.00 | 100 | 1015.8 |
| 20260507043055 | 10 | 187 | 1.6 | 8.0 | 0.00 | 0.00 | 0.00 | 100 | 1016.0 |
| 20260507041559 | 10 | 0 | 3.2 | 8.0 | 0.00 | 0.00 | 0.00 | 100 | 1016.3 |
| 20260507034558 | 10 | 213 | 3.2 | 9.7 | 0.00 | 0.00 | 0.00 | 100 | 1017.0 |
| 20260507033101 | 10 | 157 | 3.2 | 11.3 | 0.00 | 0.00 | 0.00 | 99 | 1017.2 |
| 20260507031557 | 10 | 225 | 1.6 | 6.4 | 0.00 | 0.00 | 0.00 | 99 | 1017.3 |
| 20260507030055 | 10 | 0 | 0.0 | 1.6 | 0.00 | 0.00 | 0.00 | 99 | 1017.4 |
| 20260507024606 | 10 | 0 | 0.0 | 0.0 | 0.00 | 0.00 | 0.00 | 98 | 1017.5 |
| 20260507023057 | 10 | 0 | 0.0 | 3.2 | 0.00 | 0.00 | 0.00 | 97 | 1017.7 |
| 20260507021559 | 10 | 0 | 0.0 | 4.8 | 0.00 | 0.00 | 0.00 | 97 | 1017.9 |
| 20260507020113 | 10 | 0 | 0.0 | 4.8 | 0.00 | 0.00 | 0.00 | 97 | 1018.0 |
| 20260507014603 | 10 | 0 | 0.0 | 3.2 | 0.00 | 0.00 | 0.00 | 96 | 1018.0 |
| 20260507013057 | 11 | 225 | 0.0 | 6.4 | 0.00 | 0.00 | 0.00 | 95 | 1018.2 |
| 20260507011555 | 11 | 226 | 1.6 | 6.4 | 0.00 | 0.00 | 0.00 | 94 | 1018.2 |
| 20260507004605 | 11 | 223 | 1.6 | 6.4 | 0.00 | 0.00 | 0.00 | 92 | 1018.4 |
| 20260507003057 | 12 | 223 | 3.2 | 8.0 | 0.00 | 0.00 | 0.00 | 92 | 1018.3 |